Regional Weather Roundup
Issued by NWS Wakefield, VA

Home | Current Version | Previous Version | Graphics & Text | Print | Product List | Glossary On
Versions: 1 2 3 4 5 6 7 8 9 10 11 12 13 14 15 16 17 18 19 20 21 22 23 24 25 26 27 28 29 30 31 32 33 34 35 36 37 38 39 40 41 42 43 44 45 46 47 48 49 50
000
ASUS41 KAKQ 050315
RWRAKQ

REGIONAL WEATHER ROUNDUP
NATIONAL WEATHER SERVICE WAKEFIELD VA
1100 PM EDT SAT JUL 04 2015

Note: "fair" indicates few or no clouds below 12,000 feet with no
significant weather and/or obstructions to visibility. * = Denotes
station may not report precipitation (e.g., rain,snow,etc.),
thunder or fog.

VAZ042-051-052>054-056-050400-
NORTHERN VIRGINIA

CITY           SKY/WX    TMP DP  RH WIND       PRES   REMARKS
WASH NATIONAL  PTCLDY    75  70  84 NE7       30.02R HAZE
DULLES         MOCLDY    70  69  97 CALM      30.03R FOG
FORT BELVOIR   PTCLDY    68  68 100 CALM      30.02R FOG
QUANTICO       PTCLDY    72  69  90 NW5       30.03R
FREDERICKSBRG* PTCLDY    73  73 100 CALM      30.02R FOG
STAFFORD*      FAIR      67  66  97 W3        30.07R FOG
WARRENTON      FOG       67  67 100 CALM      30.03R VSB 1/2
CULPEPER*        N/A     67  67 100 CALM      30.04R FOG
MANASSAS*      CLOUDY   N/A N/A N/A MISG        N/A
LEESBURG*      CLOUDY    70  70 100 N3        30.05R
WINCHESTER     CLOUDY    72  68  88 CALM      30.05R FOG
FRONT ROYAL*   FAIR      68  68 100 CALM      30.03R
LURAY*         FAIR      70  70 100 CALM      30.05R FOG
$$

VAZ048-049-060>072-079>083-050400-
CENTRAL AND SOUTH CENTRAL VIRGINIA

CITY           SKY/WX    TMP DP  RH WIND       PRES   REMARKS
RICHMOND       PTCLDY    72  69  90 CALM      30.02R FOG
CHESTERFIELD*  NOT AVBL
PETERSBURG*    CLOUDY    71  71 100 CALM      30.03R
HANOVER        PTCLDY    69  69 100 CALM      30.04R FOG
TAPPAHANNOCK*  CLEAR     71  67  89 CALM      30.02R
QUINTON*       NOT AVBL
CHARLOTTSVILLE PTCLDY    71  68  90 CALM      30.04R
GORDONSVILLE*  FAIR      66  66 100 CALM      30.04R FOG
ORANGE*        PTCLDY    68  68 100 CALM      30.06R FOG
LOUISA*        FOG       68  66  94 CALM      30.03R VSB 1/2
BUMPASS*       FAIR      70  69  98 CALM      30.03R
FARMVILLE*     MOCLDY    74  74 100 N3        30.03R
CREWE*         FAIR      71  70  96 CALM      30.03R
FORT PICKETT*  MOCLDY    71  70  98 S9        30.03R
CHASE CITY*    MOCLDY    74  74 100 CALM      30.03S
CLARKSVILLE*   CLOUDY    70  68  94 SW9       30.03R
SOUTH HILL*    MOCLDY    72  71  96 CALM      30.08R
LAWRENCEVILLE* NOT AVBL
EMPORIA*         N/A     72  72 100 CALM      30.03S
$$

VAZ088>098-050400-
SOUTHEAST VIRGINIA

CITY           SKY/WX    TMP DP  RH WIND       PRES   REMARKS
NORFOLK        CLOUDY    74  69  85 NW5       30.02R
VIRGINIA BEACH MOCLDY    77  70  79 NW7       30.01R
NORFOLK NAVAL  MOCLDY    73  70  90 CALM      30.03R
WEST POINT*    CLEAR     71  69  91 CALM      30.02R
SALUDA*        FAIR      69  68  97 CALM      30.00R
NEWPORT NEWS   MOCLDY    73  70  90 NE3       30.02R
LANGLEY AFB    CLOUDY    74  69  82 NW2       30.00R
FORT EUSTIS    PTCLDY    73  73 100 CALM      30.00R
WILLIAMSBURG*  MOCLDY    73  72  94 CALM      30.03R
HR EXEC AP*    FAIR      72  66  83 CALM      30.04R
FRANKLIN*      MOCLDY    73  69  89 CALM      30.03R FOG
WAKEFIELD      PTCLDY    71  69  93 CALM      30.02R
$$

VAZ020-022-025-037-045-050400-
WEST CENTRAL AND SOUTHWEST VIRGINIA

CITY           SKY/WX    TMP DP  RH WIND       PRES   REMARKS
STAUNTON*      CLOUDY    72  67  85 E3        30.08R
WAYNESBORO*    FAIR      69  66  92 CALM      30.08R
HOT SPRINGS VA PTCLDY    64  64 100 N3        30.18R
LYNCHBURG      MOCLDY    71  70  96 SW3       30.06R
DANVILLE       CLOUDY    72  69  90 S5        30.05R
SOUTH BOSTON*  FAIR      70  68  95 MISG      30.03S
MARTINSVILLE   CLOUDY    71  71 100 CALM      30.09R FOG
ROANOKE        MOCLDY    73  67  81 W3        30.09R
BLACKSBURG     MOCLDY    68  67  96 CALM      30.15R
DUBLIN*        MOCLDY    69  69  99 CALM      30.13R
MARION*        CLOUDY    66  64  94 SW3       30.17R
HILLSVILLE*    CLOUDY    66  64  93 CALM      30.14R
RICHLANDS*     FOG       66  66 100 CALM      30.14R VSB<1/4
WISE*          CLOUDY    68  66  94 CALM      30.15R
ABINGDON*      CLOUDY    69  69 100 CALM      30.12R
$$

MDZ021>025-VAZ099-100-050400-
SOUTHERN MARYLAND AND THE DELMARVA PENINSULA

CITY           SKY/WX    TMP DP  RH WIND       PRES   REMARKS
PATUXENT RIVER PTCLDY    72  70  93 MISG      30.00R
BAY BRIDGE APT   N/A     72  70  94 CALM      30.00R
LEONARDTOWN    PTCLDY    68  66  94 CALM      30.01S
DOVER          PTCLDY    69  63  80 E6        29.98S
GEORGETOWN     MOCLDY    69  67  93 NE3       30.00S
EASTON         PTCLDY    71  71 100 CALM      30.03S
CAMBRIDGE      PTCLDY    72  68  88 SE3       29.99S
SALISBURY      MOCLDY    69  69 100 CALM      29.99S FOG
OCEAN CITY     LGT RAIN  72  69  90 SE3       29.99S
WALLOPS ISLAND LGT RAIN  73  73 100 E5        30.00R
ACCOMACK*      MOCLDY    72  72 100 CALM      29.99R
$$

NCZ012>017-030>032-050400-
NORTH CENTRAL AND EASTERN NORTH CAROLINA

CITY           SKY/WX    TMP DP  RH WIND       PRES   REMARKS
ROANOKE RAPIDS MOCLDY    73  70  88 CALM      30.02R
RALEIGH        CLOUDY    77  68  73 SW10      30.04R
ELIZABETH CITY PTCLDY    76  73  91 SW6       30.02R
AHOSKIE*       CLOUDY   N/A N/A N/A CALM      30.03R
EDENTON*       DRIZZLE   79  73  83 SW5       30.03R
CURRITUCK*     PTCLDY    77  70  80 SW3       30.02R
KILL DEVIL HLS PTCLDY    77  72  84 SW6       30.01S
MANTEO         PTCLDY    78  73  83 SW7       30.03R
CAPE HATTERAS  CLOUDY    78  75  90 SW14      30.05R
TARBORO*         N/A     77  71  80 SW3       30.04R
GOLDSBORO      PTCLDY    80  70  71 SW7       30.02R
WASHINGTON     CLOUDY    80  69  69 W3        30.04R
GREENVILLE     MOCLDY    81  70  69 SW5       30.05R
NEW BERN       PTCLDY    80  72  76 SW6       30.06R
WILMINGTON     PTCLDY    80  73  79 SW10      30.06S
$$

VAZ048-050400-
ELSEWHERE

CITY           SKY/WX    TMP DP  RH WIND       PRES   REMARKS
HARRISBURG PA  MOCLDY    67  63  87 CALM      30.02S
BALTIMORE      PTCLDY    71  66  84 NE6       30.01R
ANNAPOLIS      MOCLDY    73  69  87 N7        30.00R FOG
ANDREWS AFB    CLEAR     69  69  99 N2        30.01R
PHILADELPHIA   CLOUDY    70  58  65 NE6       30.02R
HENDERSON NC   CLOUDY    71  67  88 CALM      30.04S
GREENSBORO     MOCLDY    76  66  71 SW7       30.05R
ROCKY MOUNT    PTCLDY    75  71  87 S6        30.03R
$$

VAZ100-050400-
MARINE

STATION/POSITION TIME  TEMP    WIND        PRES    WAVE   SWELL
                       AIR SEA DIR/SP/G            HT/PER HT/PER
                 (UTC) (F)     (DEG/KT/KT) (MB)    (FT/S) (FT/S)
BRANDYWINE LGT   0200   72 74  120/ 10/ 10 1016.1R
CAPE MAY NJ      0200   72 77   70/  3/  5 1015.7R
LEWES DE         0200   72 73  100/  5/  6 1015.6R
15NM E FENWICK I 0250   72 73              1015.1S   5/ 7
OCEAN-CITY-INLET 0200   73 74  160/  6/  9 1015.2R
WACHAPREAGUE VA  0200   74 80   40/ 18/ 20 1014.6R
THOMAS POINT MD  0300   74 77   10/ 10/ 11 1016.4R
GOOSES REEF MD   0300   74 77  180/  6/  6 1016.8R
COVE POINT MD    0200   72     140/  8/ 12 1015.9R
SOLOMONS ISLAND  0200      80                N/A
BISHOPS HEAD MD  0200   73     100/  7/  9 1015.0R
PINEY POINT MD   0200           60/  4/  5   N/A
CAMBRIDGE MD     0200   71 79  140/  3/  5 1015.3R
LEWISETTA VA     0200   70 80  280/  3/  3 1015.1R
RAPPAHANNOCK LGT 0200           20/ 18/ 19 1015.2R
STINGRAY PT      0300   75 80  320/  4/  6 1016.1R   1/ 3
YORK RVR RNG VA  0200   75      10/ 18/ 20 1014.5R
YORKTOWN VA      0200   74 80   10/  8/ 10 1015.3R
JAMESTOWN VA     0300   72 82   40/  2/  2   N/A
DOMINION TERM VA 0200   75     260/  9/ 11 1015.2R
KIPTOPEKE VA     0200      84  340/ 26/ 33   N/A
CHES BAY BRIDGE  0200   76 78  240/ 15/ 18 1014.6R
CAPE HENRY VA    0200   74     230/ 10/ 15   N/A
CHESAPEAKE LGHT  0200   79     230/ 19/ 21 1014.9R
WILLOUBY STN VA  0200   76     280/ 10/ 12 1016.0R
CAPE HENRY BUOY  0228      78                N/A     3/ 8
1ST LANDING BUOY 0300      76              1016.1R   2/ 4
CAPE CHARLES BUO 0226      77                N/A     3/ 8   2/ 8
OFFSHORE WE BUOY 0211      77                N/A     4/ 6   2/ 9
64NM E OF VA BCH 0250   78 76  220/ 12/ 16 1015.0R   6/ 7   5/ 7
DUCK PIER NC     0200   80 72  220/  9/ 11   N/A
44100 DUCK FRF   0224      77                N/A     3/ 7
44056 DUCK FRF   0211      77                N/A     2/ 7
OREGON INLET NC  0200   80 82  240/  6/  9 1016.4R
HATTERAS NC      0200   79 80  220/ 10/ 15 1016.9R
DIAMOND SHLS NC  0250   81 81  230/ 23/ 29 1016.9R   6/ 6   2/ 9
CAPE LOOKOUT NC  0300   80     230/ 10/ 14 1017.9R
$$


USA.gov is the U.S. government's official web portal to all federal, state and local government web resources and services.